Colby, KS

10:13 AM CDT on March 25, 2017 (GMT -0500)
Shaltz

Weather History for KCBK - January, 2013

Change the Weather History Date:

Tuesday, January 1, 2013

  Actual Average (KGLD) Record (KGLD)
Temperature  
Mean Temperature 16 °F -  
Max Temperature 28 °F 37 °F 70 °F (1997)
Min Temperature 5 °F 14 °F -15 °F (1928)
Degree Days  
Heating Degree Days 48    
Moisture  
Dew Point 14 °F    
Average Humidity 93    
Maximum Humidity 100    
Minimum Humidity 80    
Precipitation  
Precipitation 0.00 in - - ()
Sea Level Pressure  
Sea Level Pressure 30.15 in    
Wind  
Wind Speed 5 mph (West)    
Max Wind Speed 14 mph    
Max Gust Speed -    
Visibility 8 miles    
Events Snow    
Averages and records for this station are not official NWS values.
T = Trace of Precipitation, MM = Missing Value Source: NWS Daily Summary

Daily Weather History Graph

Daily Weather History Graph

Search for Another Location

Airport or City:

Trip Planner

Search our weather history database for the weather conditions in past years. The results will help you decide how hot, cold, wet, or windy it might be!

Date:

Astronomy

Jan. 01, 2013 Rise Set
Actual Time 8:04 AM CST 5:31 PM CST
Civil Twilight 7:34 AM CST 6:01 PM CST
Nautical Twilight 7:00 AM CST 6:35 PM CST
Astronomical Twilight 6:28 AM CST 7:08 PM CST
Moon 10:03 PM CST (1/1) 10:18 AM CST (1/1)
Length of Visible Light 10h 27m
Length of Day
9h 27m
Waning Gibbous, 83% of the Moon is Illuminated
Jan 1
Waning Gibbous
Jan 4
Last Quarter
Jan 11
New
Jan 18
First Quarter
Jan 26
Full

Hourly Weather History & Observations

Time (CST) Temp. Windchill Dew Point Humidity Pressure Visibility Wind Dir Wind Speed Gust Speed Precip Events Conditions
12:15 AM 17.6 °F 12.3 °F 17.6 °F 100% 30.14 in 2.5 mi North 3.5 mph - N/A Snow Light Snow
12:35 AM 19.4 °F - 19.4 °F 100% 30.14 in 7.0 mi Calm Calm - N/A Snow Light Snow
12:55 AM 17.6 °F - 17.6 °F 100% 30.14 in 3.0 mi Calm Calm - N/A Snow Light Snow
1:15 AM 19.4 °F 14.3 °F 19.4 °F 100% 30.14 in 4.0 mi North 3.5 mph - N/A Snow Light Snow
1:35 AM 19.4 °F - 19.4 °F 100% 30.13 in 3.0 mi Calm Calm - N/A Snow Light Snow
1:55 AM 19.4 °F 14.3 °F 19.4 °F 100% 30.13 in 5.0 mi NNW 3.5 mph - N/A Snow Light Snow
2:15 AM 19.4 °F 14.3 °F 19.4 °F 100% 30.14 in 5.0 mi NW 3.5 mph - N/A Snow Light Snow
2:35 AM 19.4 °F - 19.4 °F 100% 30.14 in 4.0 mi Calm Calm - N/A Snow Light Snow
2:55 AM 19.4 °F - 19.4 °F 100% 30.14 in 3.0 mi Calm Calm - N/A Snow Light Snow
3:15 AM 17.6 °F - 17.6 °F 100% 30.14 in 5.0 mi Calm Calm - N/A   Overcast
3:35 AM 17.6 °F 10.7 °F 17.6 °F 100% 30.14 in 7.0 mi NW 4.6 mph - N/A   Overcast
3:55 AM 17.6 °F 10.7 °F 17.6 °F 100% 30.14 in 7.0 mi NW 4.6 mph - N/A   Overcast
4:15 AM 19.4 °F - 19.4 °F 100% 30.14 in 7.0 mi Calm Calm - N/A Snow Light Snow
4:35 AM 19.4 °F 12.8 °F 19.4 °F 100% 30.14 in 5.0 mi NNW 4.6 mph - N/A Snow Light Snow
4:55 AM 19.4 °F 11.5 °F 19.4 °F 100% 30.14 in 4.0 mi NW 5.8 mph - N/A Snow Light Snow
5:15 AM 17.6 °F 9.3 °F 17.6 °F 100% 30.14 in 4.0 mi NW 5.8 mph - N/A Snow Light Snow
5:35 AM 14.0 °F 5.1 °F 14.0 °F 100% 30.13 in 5.0 mi NW 5.8 mph - N/A Snow Light Snow
6:15 AM 12.2 °F 2.9 °F 12.2 °F 100% 30.14 in 5.0 mi NW 5.8 mph - N/A   Clear
6:35 AM 10.4 °F -1.5 °F 10.4 °F 100% 30.15 in 5.0 mi WNW 8.1 mph - N/A   Clear
6:55 AM 8.6 °F -2.6 °F 8.6 °F 100% 30.15 in 7.0 mi WNW 6.9 mph - N/A   Clear
7:15 AM 8.6 °F -2.6 °F 8.6 °F 100% 30.17 in 7.0 mi WNW 6.9 mph - N/A   Clear
7:35 AM 10.4 °F -0.4 °F 10.4 °F 100% 30.17 in 5.0 mi West 6.9 mph - N/A   Clear
7:55 AM 10.4 °F -0.4 °F 10.4 °F 100% 30.18 in 10.0 mi West 6.9 mph - N/A   Clear
8:15 AM 8.6 °F -1.3 °F 8.6 °F 100% 30.18 in 10.0 mi West 5.8 mph - N/A   Clear
8:35 AM 8.6 °F -1.3 °F 8.6 °F 100% 30.18 in 10.0 mi West 5.8 mph - N/A   Clear
8:55 AM 8.6 °F -1.3 °F 8.6 °F 100% 30.19 in 10.0 mi West 5.8 mph - N/A   Clear
9:15 AM 6.8 °F -4.8 °F 5.0 °F 92% 30.19 in 7.0 mi West 6.9 mph - N/A Snow Light Snow
9:35 AM 10.4 °F -0.4 °F 10.4 °F 100% 30.20 in 10.0 mi West 6.9 mph - N/A   Clear
10:35 AM 14.0 °F 3.9 °F 14.0 °F 100% 30.22 in 10.0 mi WSW 6.9 mph - N/A   Clear
10:55 AM 15.8 °F 5.1 °F 14.0 °F 93% 30.22 in 10.0 mi West 8.1 mph - N/A   Clear
11:15 AM 17.6 °F 7.3 °F 17.6 °F 100% 30.22 in 10.0 mi West 8.1 mph - N/A   Clear
11:35 AM 19.4 °F 10.4 °F 17.6 °F 93% 30.22 in 10.0 mi West 6.9 mph - N/A   Clear
11:55 AM 21.2 °F 11.7 °F 19.4 °F 93% 30.21 in 10.0 mi West 8.1 mph - N/A   Scattered Clouds
12:15 PM 23.0 °F 12.4 °F 19.4 °F 86% 30.20 in 10.0 mi West 10.4 mph - N/A   Clear
12:35 PM 23.0 °F 13.1 °F 21.2 °F 93% 30.19 in 10.0 mi West 9.2 mph - N/A   Clear
12:55 PM 24.8 °F 16.1 °F 21.2 °F 86% 30.18 in 10.0 mi West 8.1 mph - N/A   Clear
1:15 PM 26.6 °F 19.1 °F 21.2 °F 80% 30.17 in 10.0 mi West 6.9 mph - N/A   Clear
1:35 PM 26.6 °F 18.2 °F 21.2 °F 80% 30.16 in 10.0 mi WSW 8.1 mph - N/A   Clear
1:55 PM 26.6 °F 19.1 °F 23.0 °F 86% 30.15 in 10.0 mi West 6.9 mph - N/A   Clear
2:15 PM 26.6 °F 17.5 °F 23.0 °F 86% 30.15 in 10.0 mi West 9.2 mph - N/A   Clear
2:35 PM 28.4 °F 20.4 °F 23.0 °F 80% 30.14 in 10.0 mi West 8.1 mph - N/A   Clear
2:55 PM 26.6 °F 17.5 °F 23.0 °F 86% 30.14 in 10.0 mi West 9.2 mph - N/A   Clear
3:15 PM 26.6 °F 18.2 °F 21.2 °F 80% 30.14 in 10.0 mi West 8.1 mph - N/A   Clear
3:35 PM 24.8 °F 14.6 °F 19.4 °F 80% 30.14 in 10.0 mi West 10.4 mph - N/A   Clear
3:55 PM 24.8 °F 14.0 °F 19.4 °F 80% 30.14 in 10.0 mi West 11.5 mph - N/A   Clear
4:15 PM 23.0 °F 12.4 °F 17.6 °F 80% 30.14 in 10.0 mi West 10.4 mph - N/A   Clear
4:35 PM 23.0 °F 13.9 °F 17.6 °F 80% 30.14 in 10.0 mi West 8.1 mph - N/A   Clear
4:55 PM 21.2 °F 11.7 °F 15.8 °F 80% 30.14 in 10.0 mi West 8.1 mph - N/A   Clear
5:15 PM 17.6 °F 7.3 °F 14.0 °F 86% 30.13 in 10.0 mi West 8.1 mph - N/A   Clear
5:35 PM 15.8 °F 7.2 °F 12.2 °F 86% 30.14 in 10.0 mi SW 5.8 mph - N/A   Clear
5:55 PM 15.8 °F 5.1 °F 14.0 °F 93% 30.14 in 10.0 mi SSW 8.1 mph - N/A   Clear
6:15 PM 12.2 °F -0.2 °F 10.4 °F 92% 30.14 in 10.0 mi SW 9.2 mph - N/A   Clear
6:35 PM 8.6 °F -2.6 °F 6.8 °F 92% 30.14 in 10.0 mi SW 6.9 mph - N/A   Clear
6:55 PM 10.4 °F -1.5 °F 8.6 °F 92% 30.13 in 10.0 mi SW 8.1 mph - N/A   Clear
7:15 PM 8.6 °F -3.7 °F 6.8 °F 92% 30.14 in 10.0 mi SW 8.1 mph - N/A   Clear
7:35 PM 8.6 °F -4.7 °F 8.6 °F 100% 30.13 in 10.0 mi WSW 9.2 mph - N/A   Clear
7:55 PM 8.6 °F -4.7 °F 6.8 °F 92% 30.13 in 10.0 mi West 9.2 mph - N/A   Clear
8:15 PM 10.4 °F -3.3 °F 8.6 °F 92% 30.13 in 10.0 mi West 10.4 mph - N/A   Clear
8:35 PM 5.0 °F -9.1 °F 5.0 °F 100% 30.13 in 10.0 mi WSW 9.2 mph - N/A   Clear
8:55 PM 5.0 °F -8.1 °F 3.2 °F 92% 30.13 in 10.0 mi West 8.1 mph - N/A   Clear
9:15 PM 5.0 °F -10.0 °F 3.2 °F 92% 30.12 in 10.0 mi West 10.4 mph - N/A   Clear
9:35 PM 8.6 °F -5.5 °F 5.0 °F 85% 30.12 in 10.0 mi West 10.4 mph - N/A   Clear
9:55 PM 6.8 °F -6.9 °F 5.0 °F 92% 30.12 in 10.0 mi West 9.2 mph - N/A   Clear
10:35 PM 8.6 °F -6.3 °F 6.8 °F 92% 30.12 in 10.0 mi West 11.5 mph - N/A   Clear
10:55 PM 12.2 °F -2.5 °F 8.6 °F 85% 30.12 in 10.0 mi West 12.7 mph - N/A   Clear
11:15 PM 10.4 °F -4.8 °F 8.6 °F 92% 30.13 in 10.0 mi West 12.7 mph - N/A   Clear
11:35 PM 10.4 °F -5.4 °F 8.6 °F 92% 30.12 in 10.0 mi West 13.8 mph - N/A   Clear
11:55 PM 12.2 °F -2.5 °F 8.6 °F 85% 30.12 in 10.0 mi West 12.7 mph - N/A   Clear